Location: Unspecified
(0.0000°N, 0.0000°E)
Time: 09:19:16
(UTC+00:00)

XW-2C - Pass Details

Date: 20 May 2021
Orbit: 506 x 525 km, 97.5° (Epoch: 17 June)

Event Time Altitude Azimuth Distance (km) Brightness Sun altitude
Rises 04:55:19 0° 36° (NE) 2,630 ? -14.4°
Reaches altitude 10° 04:57:50 10° 53° (NE) 1,742 ? -13.8°
Maximum altitude 05:00:38 20° 101° (ESE) 1,228 ? -13.1°
Drops below altitude 10° 05:03:26 10° 150° (SSE) 1,740 ? -12.5°
Sets 05:05:56 0° 167° (SSE) 2,625 ? -11.9°
